User: anonymous   Login
Location: Dehesa de la Cepeda
(40.6574°N, 4.3013°W)
Time: 05:59:05
(UTC+00:00)
Language:

Altair - Orbit

View from above orbital plane
View from above orbital plane
View from above satellite
View from above satellite

Ground track
Ground track

The orbit data is extracted from the following two-line orbital elements,

1    50U 60009B   21211.68030535 -.00000095  00000-0 -79047-4 0  9994
2    50  47.2319 294.2721 0113337 102.5886 258.7605 12.20115998720525
Epoch (UTC): 30 July 2021 16:19:38
Eccentricity: 0.0113337
inclination: 47.2319°
perigee height: 1502 km
apogee height: 1682 km
right ascension of ascending node: 294.2721°
argument of perigee: 102.5886°
revolutions per day: 12.20115998
mean anomaly at epoch: 258.7605°
orbit number at epoch: 72052

The dashed part of the orbit path shows where the satellite is in the earth's shadow,  

DLR